Flag for Turkey Weather past 2 weeks in Bodrum, Turkey

55 °F


Feels Like: 55 °F
Forecast: 69 / 78 °F
Wind: 5 mph from Southeast

Location: Bodrum Milas Airport

Current Time: Oct 7, 2015 at 8:13:08 AM

Latest Report: Oct 7, 2015 at 7:20 AM

Visibility: 10 mi

Pressure: 29.77 "Hg

Humidity: 88%

Dew point: 52 °F

Location of BodrumLocation

Historic Weather in Bodrum — Graph


Bodrum temperature yesterday

Maximum temperature yesterday: 81 °F (at 3:20 PM)
Minimum temperature yesterday: 59 °F (at 6:20 AM)
Average temperature yesterday: 69 °F

Past Weeks' High & Low Weather Summary

High86 °F (Sep 25, 1:20 PM)94% (Sep 22, 8:20 PM)30.18 "Hg (Sep 22, 8:20 PM)
Low57 °F (Oct 3, 5:20 AM)33% (Sep 26, 1:20 PM)29.68 "Hg (Sep 23, 2:50 AM)
Average71 °F72%29.94 "Hg
* Reported Sep 22 6:20 AM — Oct 7 6:50 AM, Bodrum, Weather by CustomWeather, © 2015

Note: Actual official high and low records may vary slightly from our data, if they occured in-between our weather recording intervals... More about our weather records


Bodrum weather history for previous 24 hours

Time TempWeatherWind HumidityBarometerVisibility
6:50 AM
Wed, Oct 7
57 °FClear.5 mph82%29.77 "Hg10 mi
6:20 AM57 °FPassing clouds.5 mph82%29.77 "HgN/A
5:50 AM59 °FClear.3 mph82%29.77 "Hg10 mi
5:20 AM59 °FClear.5 mph82%29.77 "Hg10 mi
4:50 AM59 °FClear.7 mph82%29.77 "Hg10 mi
4:20 AM61 °FPassing clouds.3 mph77%29.77 "HgN/A
3:50 AM63 °FClear.5 mph73%29.74 "Hg10 mi
3:20 AM66 °FPassing clouds.8 mph60%29.77 "HgN/A
2:50 AM66 °FPassing clouds.8 mph60%29.77 "HgN/A
2:20 AM68 °FPassing clouds.5 mph56%29.77 "HgN/A
1:50 AM70 °FClear.7 mph53%29.77 "Hg10 mi
1:20 AM68 °FPassing clouds.6 mph60%29.77 "HgN/A
12:50 AM66 °FClear.5 mph64%29.77 "Hg10 mi
12:20 AM63 °FClear.5 mph83%29.77 "Hg10 mi
11:50 PM
Tue, Oct 6
66 °FPassing clouds.3 mph73%29.77 "HgN/A
11:20 PM66 °FClear.No wind73%29.77 "Hg10 mi
10:50 PM66 °FClear.2 mph73%29.77 "Hg10 mi
10:20 PM70 °FClear.2 mph64%29.77 "Hg10 mi
9:50 PM68 °FPassing clouds.3 mph69%29.77 "HgN/A
9:20 PM70 °FClear.2 mph64%29.74 "Hg10 mi
8:50 PM72 °FClear.2 mph61%29.74 "Hg10 mi
8:20 PM72 °FClear.8 mph69%29.74 "Hg10 mi
7:50 PM72 °FClear.8 mph69%29.74 "Hg10 mi
7:20 PM73 °FSunny.8 mph61%29.74 "Hg10 mi
6:50 PM73 °FPassing clouds.15 mph61%29.74 "HgN/A
6:20 PM75 °FPassing clouds.17 mph61%29.74 "HgN/A
5:50 PM75 °FPassing clouds.21 mph65%29.71 "HgN/A
5:20 PM77 °FPassing clouds.21 mph57%29.71 "HgN/A
4:50 PM77 °FPassing clouds.21 mph57%29.71 "HgN/A
4:20 PM79 °FPassing clouds.20 mph54%29.71 "HgN/A
3:50 PM79 °FScattered clouds.23 mph51%29.71 "HgN/A
3:20 PM81 °FPartly sunny.20 mph51%29.71 "HgN/A
2:50 PM79 °FPartly sunny.20 mph51%29.74 "HgN/A
2:20 PM79 °FPartly sunny.14 mph54%29.74 "HgN/A
1:50 PM79 °FPartly sunny.14 mph51%29.77 "HgN/A
1:20 PM79 °FPartly sunny.8 mph51%29.77 "HgN/A
12:50 PM79 °FPartly sunny.6 mph54%29.77 "HgN/A
12:20 PM77 °FPartly sunny.7 mph57%29.80 "HgN/A
11:50 AM77 °FPartly sunny.6 mph54%29.80 "HgN/A
11:20 AM75 °FScattered clouds.6 mph61%29.80 "HgN/A
10:50 AM73 °FScattered clouds.2 mph65%29.80 "HgN/A
10:20 AM73 °FScattered clouds.2 mph65%29.83 "HgN/A
9:50 AM70 °FScattered clouds.3 mph73%29.83 "HgN/A
9:20 AM66 °FScattered clouds.3 mph83%29.83 "HgN/A
8:50 AM64 °FScattered clouds.1 mph88%29.83 "HgN/A
8:20 AM61 °FScattered clouds.No wind94%29.80 "Hg4 mi
Weather by CustomWeather, © 2015

See weather overviewHow to use our weather pages